Weather in Kaisiadorys

Lithuania     54°51′49″N   24°27′19″E
temp.,
°C
wind,
m/s
gust,
m/s
humid.,
%
clouds,
%
prec.,
mm/h
press.,
hPa
HPBL,
m
28 july, wed
wed2800:00+18ssw2394100 0.1 101246
03:00+18sw24966 0.1 101182
06:00+17wsw22965 0.0 101220
09:00+21w22847 0.0 1012310
12:00+25wsw346033 0.0 10111010
15:00+27wsw5650100 0.0 10111740
18:00+27w47520 0.0 10101682
21:00+23sw226199 0.0 101031
29 july, thu
thu2900:00+20s337112 0.0 101037
03:00+18sse2290100 1.2 100921
06:00+18sw41096100 1.8 1009359
09:00+20wnw478975 1.8 1009408
12:00+23w45611 0.0 10091182
15:00+26wsw564932 0.0 10082057
18:00+23w4861100 0.0 1007397
21:00+20w2275100 0.1 100819
30 july, fri
fri3000:00+17w238599 0.0 100933
03:00+16w128261 0.0 100954
06:00+14ssw359012 0.0 100874
09:00+20sw610635 0.0 1008937
12:00+22wsw71144100 0.0 10081942
15:00+21wsw5953100 0.0 1007995
18:00+20wsw4959100 0.0 1006620
21:00+18sw411640 0.0 1005318
31 july, sat
sat3100:00+15sw4117247 0.0 1006236
03:00+13sw47840 0.0 1007113
06:00+13sw388197 0.0 1007120
09:00+18sw4763100 0.0 1007356
12:00+21sw4753100 0.0 1006726
15:00+25wsw6947100 0.0 10051887
18:00+19ssw3587100 1.1 1004219
21:00+18ssw3892100 1.6 1004202
1 august, sun
sun100:00+16wsw3491100 0.0 100560
03:00+14wsw35920 0.1 100671
06:00+12sw411920 0.0 1006216
09:00+17sw6107813 0.0 1007540
12:00+21wsw685969 0.0 10081486
15:00+21w4757100 0.0 10081439
18:00+23w4650100 0.0 10071768
21:00+18n1173100 0.0 100811